Location: Mount Cross
(36.6390°N, 79.4878°W)
Time: 02:20:41
(UTC+00:00)

SR - Pass Details

Date: 03 April 2023
Orbit: 580 x 867 km, 66.7° (Epoch: 08 June)

Event Time Altitude Azimuth Distance (km) Brightness Sun altitude
Rises 15:53:11 0° 305° (NW) 2,873 ? 52.8°
Reaches altitude 10° 15:57:11 10° 269° (W) 2,020 ? 53.3°
Maximum altitude 15:58:20 11° 254° (WSW) 1,979 ? 53.4°
Drops below altitude 10° 15:59:31 10° 239° (WSW) 2,056 ? 53.6°
Sets 16:03:45 0° 203° (SSW) 3,044 ? 54.1°
